Mustafa Dayi — TCZF2 — position and weather

sailwx.info

Track history (hours):
 
Tides and Currents Weather Stations Pressure Air Temp Water Temp Dewpoint Dewpoint Depression Visibility Wind Speed Wind Dir Waves Ship Positions

Mustafa Dayi

Last reported at 2014-Oct-30 09:04 UTC. Time now 2014-Oct-30 12:24 UTC.
Position N 37°21' E 026°52'.

Length 183 m; draft 9.5 m.

Type: Ship. MMSI: 271042433.

Date/timePositionNaut miles runAvg speedWind from/ knotsBaromVisibWave heightAir tempDewpointWater temp
2014-Oct-30 09:04N 37°21' E 026°52'714.1
2014-Oct-30 08:33N 37°27' E 026°48'1414.1
2014-Oct-30 07:34N 37°38' E 026°36'1513.8
2014-Oct-30 06:29N 37°47' E 026°22'2714.0
2014-Oct-30 04:32N 38°06' E 025°56'148 3.5
2014-Oct-28 10:09N 40°28' E 026°50'8213.8
2014-Oct-28 04:14N 40°27' E 028°37'  
2014-Oct-25 19:14N 40°58' E 028°41'2 3.3
2014-Oct-25 18:33N 40°56' E 028°41'24010.8
2014-Oct-24 20:13N 37°34' E 025°53'914.1
2014-Oct-24 19:34N 37°26' E 025°59'1514.5
2014-Oct-24 18:34N 37°17' E 026°14'1514.5
2014-Oct-24 17:34N 37°08' E 026°29'1813.8
2014-Oct-24 16:16N 36°54' E 026°42'1114.7
2014-Oct-24 15:32N 36°44' E 026°45'1514.8
2014-Oct-24 14:34N 36°30' E 026°50'1514.6
2014-Oct-24 13:34N 36°17' E 026°60'  
2014-Oct-22 02:21N 35°26' E 032°28'1114.1
2014-Oct-22 01:33N 35°32' E 032°39'1413.8
2014-Oct-22 00:33N 35°38' E 032°54'27 0.9
2014-Oct-20 18:32N 35°57' E 032°31'  
Track history (hours):
 
Tides and Currents Weather Stations Pressure Air Temp Water Temp Dewpoint Dewpoint Depression Visibility Wind Speed Wind Dir Waves Ship Positions

Mustafa Dayi

Last reported at 2014-Oct-30 09:04 UTC. Time now 2014-Oct-30 12:24 UTC.
Position N 37°21' E 026°52'.

Length 183 m; draft 9.5 m.

Type: Ship. MMSI: 271042433.

Date/timePositionNaut miles runAvg speedWind from/ knotsBaromVisibWave heightAir tempDewpointWater temp
2014-Oct-30 09:04N 37°21' E 026°52'714.1
2014-Oct-30 08:33N 37°27' E 026°48'1414.1
2014-Oct-30 07:34N 37°38' E 026°36'1513.8
2014-Oct-30 06:29N 37°47' E 026°22'2714.0
2014-Oct-30 04:32N 38°06' E 025°56'148 3.5
2014-Oct-28 10:09N 40°28' E 026°50'8213.8
2014-Oct-28 04:14N 40°27' E 028°37'  
2014-Oct-25 19:14N 40°58' E 028°41'2 3.3
2014-Oct-25 18:33N 40°56' E 028°41'24010.8
2014-Oct-24 20:13N 37°34' E 025°53'914.1
2014-Oct-24 19:34N 37°26' E 025°59'1514.5
2014-Oct-24 18:34N 37°17' E 026°14'1514.5
2014-Oct-24 17:34N 37°08' E 026°29'1813.8
2014-Oct-24 16:16N 36°54' E 026°42'1114.7
2014-Oct-24 15:32N 36°44' E 026°45'1514.8
2014-Oct-24 14:34N 36°30' E 026°50'1514.6
2014-Oct-24 13:34N 36°17' E 026°60'  
2014-Oct-22 02:21N 35°26' E 032°28'1114.1
2014-Oct-22 01:33N 35°32' E 032°39'1413.8
2014-Oct-22 00:33N 35°38' E 032°54'27 0.9
2014-Oct-20 18:32N 35°57' E 032°31'  

Dump ship's entire track history